Newberry, SC

7:46 PM EST on February 23, 2017 (GMT -0500)
Newberry

Weather History for KEOE - March, 2012

Change the Weather History Date:

Friday, March 23, 2012

  Actual Average (KFDW) Record (KFDW)
Temperature  
Mean Temperature 70 °F -  
Max Temperature 80 °F 66 °F 82 °F (2011)
Min Temperature 59 °F 39 °F 42 °F (2014)
Cooling Degree Days 4    
Growing Degree Days 20 (Base 50)    
Moisture  
Dew Point 61 °F    
Average Humidity 79    
Maximum Humidity 100    
Minimum Humidity 42    
Precipitation  
Precipitation 0.00 in - - ()
Sea Level Pressure  
Sea Level Pressure 30.11 in    
Wind  
Wind Speed 3 mph (SSW)    
Max Wind Speed 14 mph    
Max Gust Speed 17 mph    
Visibility 9 miles    
Events Rain , Thunderstorm    
Averages and records for this station are not official NWS values.
T = Trace of Precipitation, MM = Missing Value Source: NWS Daily Summary

Daily Weather History Graph

Daily Weather History Graph

Search for Another Location

Airport or City:

Trip Planner

Search our weather history database for the weather conditions in past years. The results will help you decide how hot, cold, wet, or windy it might be!

Date:

Astronomy

Mar. 23, 2012 Rise Set
Actual Time 7:25 AM EDT 7:40 PM EDT
Civil Twilight 7:00 AM EDT 8:06 PM EDT
Nautical Twilight 6:31 AM EDT 8:35 PM EDT
Astronomical Twilight 6:01 AM EDT 9:05 PM EDT
Moon 7:37 AM EDT (3/23) 8:55 PM EDT (3/23)
Length of Visible Light 13h 05m
Length of Day
12h 15m
New Moon, 1% of the Moon is Illuminated
Mar 23
New Moon
Mar 30
First Quarter
Apr 6
Full
Apr 13
Last Quarter
Apr 21
New

Hourly Weather History & Observations

Time (EDT) Temp. Heat Index Dew Point Humidity Pressure Visibility Wind Dir Wind Speed Gust Speed Precip Events Conditions
12:15 AM 64.4 °F - 62.6 °F 94% 30.20 in 10.0 mi Calm Calm - N/A   Clear
1:15 AM 64.4 °F - 62.6 °F 94% 30.19 in 10.0 mi South 3.5 mph - N/A   Clear
1:35 AM 62.6 °F - 62.6 °F 100% 30.19 in 10.0 mi South 3.5 mph - N/A   Scattered Clouds
1:55 AM 64.4 °F - 62.6 °F 94% 30.18 in 10.0 mi Calm Calm - N/A   Mostly Cloudy
2:15 AM 64.4 °F - 62.6 °F 94% 30.18 in 10.0 mi Calm Calm - N/A   Mostly Cloudy
2:55 AM 62.6 °F - 60.8 °F 94% 30.17 in 10.0 mi South 3.5 mph - N/A   Scattered Clouds
3:15 AM 62.6 °F - 60.8 °F 94% 30.17 in 10.0 mi South 3.5 mph - N/A   Mostly Cloudy
3:35 AM 62.6 °F - 62.6 °F 100% 30.17 in 10.0 mi Calm Calm - N/A   Mostly Cloudy
4:15 AM 60.8 °F - 60.8 °F 100% 30.16 in 5.0 mi Calm Calm - N/A   Scattered Clouds
4:35 AM 60.8 °F - 60.8 °F 100% 30.16 in 3.0 mi Calm Calm - N/A   Clear
4:55 AM 60.8 °F - 60.8 °F 100% 30.16 in 5.0 mi SSE 3.5 mph - N/A   Clear
5:15 AM 60.8 °F - 60.8 °F 100% 30.15 in 5.0 mi SSE 3.5 mph - N/A   Clear
5:35 AM 60.8 °F - 60.8 °F 100% 30.15 in 5.0 mi SSE 3.5 mph - N/A   Clear
6:15 AM 60.8 °F - 60.8 °F 100% 30.15 in 3.0 mi Calm Calm - N/A   Clear
7:15 AM 59.0 °F - 59.0 °F 100% 30.16 in 4.0 mi Calm Calm - N/A   Clear
7:35 AM 59.0 °F - 59.0 °F 100% 30.16 in 1.2 mi Calm Calm - N/A   Mist
7:55 AM 59.0 °F - 59.0 °F 100% 30.17 in 0.8 mi Calm Calm - N/A   Mist
8:35 AM 60.8 °F - 60.8 °F 100% 30.17 in 5.0 mi SSE 4.6 mph - N/A   Clear
8:55 AM 62.6 °F - 62.6 °F 100% 30.17 in 7.0 mi SSE 3.5 mph - N/A   Clear
9:15 AM 64.4 °F - 64.4 °F 100% 30.17 in 7.0 mi Calm Calm - N/A   Scattered Clouds
9:35 AM 64.4 °F - 64.4 °F 100% 30.17 in 10.0 mi South 3.5 mph - N/A   Scattered Clouds
9:55 AM 64.4 °F - 64.4 °F 100% 30.17 in 10.0 mi Calm Calm - N/A   Scattered Clouds
10:15 AM 68.0 °F - 64.4 °F 88% 30.17 in 10.0 mi SSE 3.5 mph - N/A   Clear
10:55 AM 69.8 °F - 64.4 °F 83% 30.16 in 10.0 mi SW 3.5 mph - N/A   Mostly Cloudy
11:15 AM 71.6 °F - 62.6 °F 73% 30.16 in 10.0 mi SW 8.1 mph - N/A   Mostly Cloudy
11:35 AM 73.4 °F - 62.6 °F 69% 30.16 in 10.0 mi West 5.8 mph - N/A   Mostly Cloudy
11:55 AM 73.4 °F - 62.6 °F 69% 30.15 in 10.0 mi West 4.6 mph - N/A   Scattered Clouds
12:15 PM 75.2 °F - 60.8 °F 61% 30.16 in 10.0 mi WSW 5.8 mph - N/A   Clear
12:35 PM 77.0 °F - 60.8 °F 57% 30.15 in 10.0 mi SW 4.6 mph - N/A   Mostly Cloudy
12:55 PM 77.0 °F - 60.8 °F 57% 30.15 in 10.0 mi SW 5.8 mph - N/A   Mostly Cloudy
1:35 PM 77.0 °F - 60.8 °F 57% 30.13 in 10.0 mi SW 4.6 mph - N/A   Scattered Clouds
1:55 PM 77.0 °F - 60.8 °F 57% 30.12 in 10.0 mi SSW 3.5 mph - N/A   Scattered Clouds
2:15 PM 77.0 °F - 60.8 °F 57% 30.11 in 10.0 mi WSW 6.9 mph - N/A   Scattered Clouds
2:35 PM 78.8 °F - 59.0 °F 51% 30.09 in 10.0 mi SSW 6.9 mph - N/A   Mostly Cloudy
3:15 PM 80.6 °F 81.1 °F 59.0 °F 48% 30.06 in 10.0 mi SSW 6.9 mph - N/A   Mostly Cloudy
3:35 PM 80.6 °F 81.1 °F 59.0 °F 48% 30.06 in 10.0 mi SSW 8.1 mph 16.1 mph N/A   Scattered Clouds
3:55 PM 80.6 °F 81.1 °F 59.0 °F 48% 30.05 in 10.0 mi SSW 6.9 mph - N/A Thunderstorm Scattered Clouds
4:15 PM 80.6 °F 80.8 °F 57.2 °F 45% 30.04 in 10.0 mi SW 11.5 mph 17.3 mph N/A Thunderstorm Scattered Clouds
4:35 PM 80.6 °F 80.5 °F 55.4 °F 42% 30.02 in 10.0 mi SSW 10.4 mph - N/A Thunderstorm Scattered Clouds
4:55 PM 78.8 °F - 57.2 °F 47% 30.02 in 10.0 mi SSW 6.9 mph - N/A Thunderstorm Scattered Clouds
5:35 PM 77.0 °F - 60.8 °F 57% 30.02 in 10.0 mi SSW 6.9 mph - N/A Thunderstorm Clear
5:55 PM 77.0 °F - 60.8 °F 57% 30.03 in 10.0 mi SW 13.8 mph - N/A   Scattered Clouds
6:15 PM 73.4 °F - 59.0 °F 61% 30.04 in 10.0 mi West 9.2 mph 17.3 mph N/A Thunderstorm Mostly Cloudy
6:35 PM 71.6 °F - 59.0 °F 64% 30.03 in 10.0 mi West 6.9 mph - N/A   Mostly Cloudy
6:55 PM 69.8 °F - 59.0 °F 68% 30.03 in 10.0 mi WSW 3.5 mph - N/A Thunderstorm Scattered Clouds
7:15 PM 68.0 °F - 59.0 °F 73% 30.03 in 10.0 mi Calm Calm - N/A Rain Light Rain
7:35 PM 68.0 °F - 60.8 °F 78% 30.02 in 10.0 mi SSE 4.6 mph - N/A   Mostly Cloudy
7:55 PM 68.0 °F - 62.6 °F 83% 30.02 in 10.0 mi South 4.6 mph - N/A   Scattered Clouds
8:35 PM 68.0 °F - 62.6 °F 83% 30.01 in 10.0 mi Calm Calm - N/A   Clear
8:55 PM 66.2 °F - 62.6 °F 88% 30.02 in 10.0 mi SSE 3.5 mph - N/A   Clear
9:15 PM 66.2 °F - 62.6 °F 88% 30.02 in 10.0 mi SSE 3.5 mph - N/A   Scattered Clouds
9:35 PM 68.0 °F - 64.4 °F 88% 30.02 in 10.0 mi South 3.5 mph - N/A   Mostly Cloudy
10:15 PM 68.0 °F - 62.6 °F 83% 30.03 in 10.0 mi South 3.5 mph - N/A   Overcast
10:35 PM 68.0 °F - 62.6 °F 83% 30.03 in 10.0 mi South 3.5 mph - N/A   Overcast
10:55 PM 68.0 °F - 62.6 °F 83% 30.03 in 10.0 mi South 3.5 mph - N/A   Overcast
11:15 PM 66.2 °F - 62.6 °F 88% 30.03 in 10.0 mi South 4.6 mph - N/A   Light Drizzle
11:55 PM 66.2 °F - 64.4 °F 94% 30.02 in 10.0 mi SSE 5.8 mph - N/A Rain Light Rain